Masbate, Philippines

5:11 PM +08 on May 24, 2018 (GMT +0800)
Mactan-Cebu International

Weather History for RPVM - November, 2012

Change the Weather History Date:

Friday, November 9, 2012

  Actual Average Record
Temperature  
Mean Temperature 83 °F -  
Max Temperature 91 °F 86 °F 91 °F (2008)
Min Temperature 75 °F 76 °F 72 °F (2016)
Cooling Degree Days 18    
Growing Degree Days 33 (Base 50)    
Moisture  
Dew Point 77 °F    
Average Humidity 84    
Maximum Humidity 94    
Minimum Humidity 71    
Precipitation  
Precipitation 0.00 in - - ()
Sea Level Pressure  
Sea Level Pressure 29.81 in    
Wind  
Wind Speed 5 mph ()    
Max Wind Speed 12 mph    
Max Gust Speed -    
Visibility 8.0 miles    
Events      
Averages and records for this station are not official NWS values.
T = Trace of Precipitation, MM = Missing Value Source: Averaged Metar Reports

Daily Weather History Graph

Daily Weather History Graph

Search for Another Location

Airport or City:

Astronomy

Nov. 09, 2012 Rise Set
Actual Time 5:41 AM +08 5:17 PM +08
Civil Twilight 5:18 AM +08 5:39 PM +08
Nautical Twilight 4:53 AM +08 6:05 PM +08
Astronomical Twilight 4:28 AM +08 6:30 PM +08
Moon 12:55 AM +08 (11/9) 1:23 PM +08 (11/9)
Length of Visible Light 12h 20m
Length of Day
11h 36m
Waning Crescent, 28% of the Moon is Illuminated
Nov 9
Waning Crescent
Nov 14
New
Nov 20
First Quarter
Nov 28
Full
Dec 6
Last Quarter

Hourly Weather History & Observations

Time (+08) Temp. Heat Index Dew Point Humidity Pressure Visibility Wind Dir Wind Speed Gust Speed Precip Events Conditions
12:00 AM 78.8 °F - 75.2 °F 89% 29.83 in 6.2 mi NNW 6.9 mph - N/A   Mostly Cloudy
1:00 AM 78.8 °F - 75.2 °F 89% 29.80 in 6.2 mi NNW 4.6 mph - N/A   Mostly Cloudy
2:00 AM 78 °F - 76 °F 92% 29.80 in 11 mi Calm Calm - -   Scattered Clouds
2:00 AM 77.0 °F - 75.2 °F 94% 29.77 in 6.2 mi NNW 6.9 mph - N/A   Mostly Cloudy
3:00 AM 77.0 °F - 75.2 °F 94% 29.77 in 6.2 mi NNW 2.3 mph - N/A   Mostly Cloudy
4:00 AM 78.8 °F - 75.2 °F 89% 29.80 in 6.2 mi NNW 2.3 mph - N/A   Mostly Cloudy
5:00 AM 77 °F - 75 °F 92% 29.79 in 11 mi East 4.5 mph - -   Partly Cloudy
5:00 AM 78.8 °F - 75.2 °F 89% 29.80 in 6.2 mi NNW 2.3 mph - N/A   Mostly Cloudy
6:00 AM 78.8 °F - 75.2 °F 89% 29.80 in 6.2 mi NNW 4.6 mph - N/A   Mostly Cloudy
7:00 AM 80.6 °F 87.1 °F 77.0 °F 89% 29.83 in 6.2 mi Calm Calm - N/A   Mostly Cloudy
8:00 AM 83 °F - 79 °F 84% 29.86 in 16 mi Calm Calm - -   Scattered Clouds
8:00 AM 82.4 °F 92.4 °F 78.8 °F 89% 29.86 in 6.2 mi NNE 4.6 mph - N/A   Mostly Cloudy
9:00 AM 84.2 °F 96.1 °F 78.8 °F 84% 29.86 in 6.2 mi North 8.1 mph - N/A   Scattered Clouds
10:00 AM 86.0 °F 99.3 °F 78.8 °F 79% 29.86 in 6.2 mi NNE 9.2 mph - N/A   Scattered Clouds
11:00 AM 86 °F - 80 °F 79% 29.84 in 19 mi East 4.5 mph - -   Scattered Clouds
11:00 AM 86.0 °F 96.9 °F 77.0 °F 74% 29.83 in 6.2 mi NE 9.2 mph - N/A   Scattered Clouds
12:00 PM 86.0 °F 99.3 °F 78.8 °F 79% 29.80 in 6.2 mi NE 9.2 mph - N/A   Scattered Clouds
1:00 PM 86.0 °F 99.3 °F 78.8 °F 79% 29.80 in 6.2 mi ENE 6.9 mph - N/A   Partly Cloudy
2:00 PM 90 °F - 82 °F 71% 29.78 in 19 mi East 4.5 mph - -   Scattered Clouds
2:00 PM 87.8 °F 102.5 °F 78.8 °F 75% 29.77 in 6.2 mi NE 11.5 mph - N/A   Partly Cloudy
3:00 PM 86.0 °F 96.9 °F 77.0 °F 74% 29.74 in 6.2 mi NNE 11.5 mph - N/A   Scattered Clouds
4:00 PM 86.0 °F 96.9 °F 77.0 °F 74% 29.77 in 6.2 mi NNE 11.5 mph - N/A   Scattered Clouds
5:00 PM 82.4 °F 92.4 °F 78.8 °F 89% 29.77 in 6.2 mi NNE 11.5 mph - N/A   Scattered Clouds
7:00 PM 82.4 °F 90.9 °F 77.0 °F 84% 29.80 in 6.2 mi North 4.6 mph - N/A   Scattered Clouds
8:00 PM 82 °F - 77 °F 81% 29.82 in 11 mi SSE 4.5 mph - -   Partly Cloudy
8:00 PM 82.4 °F 90.9 °F 77.0 °F 84% 29.83 in 6.2 mi North 4.6 mph - N/A   Partly Cloudy
9:00 PM 82.4 °F 90.9 °F 77.0 °F 84% 29.86 in 6.2 mi NNW 2.3 mph - N/A   Scattered Clouds
10:00 PM 82.4 °F 90.9 °F 77.0 °F 84% 29.86 in 6.2 mi NNE 2.3 mph - N/A   Scattered Clouds
11:00 PM 81 °F - 76 °F 82% 29.85 in 11 mi Calm Calm - -   Scattered Clouds
11:00 PM 82.4 °F 90.9 °F 77.0 °F 84% 29.86 in 5.0 mi NNE 8.1 mph - N/A   Scattered Clouds